Stündliche Wetter Aberdeen

Heute, 17 Juni, Donnerstag

Zeit Temperatur Niederschläge Wind Luftdruck Luftfeuchtigkeit
00:00 +19°C° 0 mm 4 m/S 725 mmHg 65%
01:00 +19°C° 0 mm 4 m/S 725 mmHg 65%
02:00 +18°C° 0 mm 4 m/S 725 mmHg 65%
03:00 +18°C° 0 mm 4 m/S 724 mmHg 66%
04:00 +17°C° 0 mm 4 m/S 724 mmHg 67%
05:00 +17°C° 0 mm 3 m/S 724 mmHg 69%
06:00 +19°C° 0 mm 3 m/S 724 mmHg 57%
07:00 +21°C° 0 mm 3 m/S 724 mmHg 46%
08:00 +25°C° 0 mm 3 m/S 725 mmHg 35%
09:00 +26°C° 0 mm 3 m/S 725 mmHg 31%
10:00 +28°C° 0 mm 3 m/S 725 mmHg 28%
11:00 +29°C° 0 mm 2 m/S 724 mmHg 24%
12:00 +30°C° 0 mm 2 m/S 724 mmHg 23%
13:00 +31°C° 0 mm 1 m/S 724 mmHg 21%
14:00 +33°C° 0 mm 1 m/S 723 mmHg 20%
15:00 +32°C° 0 mm 2 m/S 723 mmHg 21%
16:00 +32°C° 0 mm 2 m/S 722 mmHg 22%
17:00 +32°C° 0 mm 2 m/S 722 mmHg 22%
18:00 +30°C° 0 mm 3 m/S 722 mmHg 28%
19:00 +27°C° 0 mm 3 m/S 722 mmHg 33%
20:00 +24°C° 0 mm 3 m/S 721 mmHg 39%
21:00 +22°C° 0 mm 3 m/S 721 mmHg 43%
22:00 +21°C° 0 mm 3 m/S 721 mmHg 48%
23:00 +20°C° 0 mm 2 m/S 721 mmHg 52%

Morgen, 18 Juni, Freitag

Zeit Temperatur Niederschläge Wind Luftdruck Luftfeuchtigkeit
00:00 +19°C° 0 mm 3 m/S 721 mmHg 55%
01:00 +19°C° 0 mm 3 m/S 721 mmHg 58%
02:00 +19°C° 0 mm 3 m/S 722 mmHg 61%
03:00 +19°C° 0 mm 3 m/S 722 mmHg 59%
04:00 +18°C° 0 mm 3 m/S 722 mmHg 57%
05:00 +18°C° 0 mm 3 m/S 723 mmHg 55%
06:00 +21°C° 0 mm 3 m/S 723 mmHg 45%
07:00 +25°C° 0 mm 4 m/S 724 mmHg 34%
08:00 +28°C° 0 mm 5 m/S 724 mmHg 23%
09:00 +29°C° 0 mm 5 m/S 724 mmHg 22%
10:00 +30°C° 0 mm 6 m/S 724 mmHg 21%
11:00 +32°C° 0 mm 7 m/S 724 mmHg 19%
12:00 +33°C° 0 mm 7 m/S 724 mmHg 19%
13:00 +33°C° 0 mm 8 m/S 724 mmHg 19%
14:00 +33°C° 0 mm 8 m/S 724 mmHg 18%
15:00 +33°C° 0 mm 8 m/S 724 mmHg 20%
16:00 +32°C° 0 mm 8 m/S 724 mmHg 22%
17:00 +31°C° 0 mm 8 m/S 724 mmHg 24%
18:00 +27°C° 0 mm 7 m/S 724 mmHg 32%
19:00 +23°C° 0 mm 6 m/S 724 mmHg 40%
20:00 +20°C° 0 mm 6 m/S 724 mmHg 49%
21:00 +17°C° 0 mm 5 m/S 725 mmHg 59%
22:00 +16°C° 0 mm 3 m/S 725 mmHg 69%
23:00 +13°C° 0 mm 2 m/S 725 mmHg 78%

übermorgen, 19 Juni, Samstag

Zeit Temperatur Niederschläge Wind Luftdruck Luftfeuchtigkeit
00:00 +13°C° 0 mm 2 m/S 725 mmHg 82%
01:00 +12°C° 0 mm 1 m/S 725 mmHg 86%
02:00 +11°C° 0 mm 1 m/S 725 mmHg 90%
03:00 +11°C° 0 mm 1 m/S 725 mmHg 87%
04:00 +12°C° 0 mm 1 m/S 725 mmHg 85%
05:00 +12°C° 0 mm 1 m/S 725 mmHg 82%
06:00 +15°C° 0 mm 1 m/S 725 mmHg 71%
07:00 +18°C° 0 mm 1 m/S 725 mmHg 60%
08:00 +19°C° 0 mm 0 m/S 725 mmHg 49%
09:00 +23°C° 0 mm 1 m/S 724 mmHg 43%
10:00 +25°C° 0 mm 2 m/S 724 mmHg 38%
11:00 +27°C° 0 mm 3 m/S 723 mmHg 32%
12:00 +27°C° 0 mm 4 m/S 722 mmHg 34%
13:00 +27°C° 0 mm 4 m/S 722 mmHg 36%
14:00 +27°C° 0 mm 5 m/S 721 mmHg 38%
15:00 +26°C° 0 mm 5 m/S 721 mmHg 45%
16:00 +25°C° 0 mm 5 m/S 720 mmHg 51%
17:00 +25°C° 0 mm 5 m/S 720 mmHg 57%
18:00 +22°C° 0 mm 5 m/S 719 mmHg 67%
19:00 +20°C° 0 mm 4 m/S 718 mmHg 77%
20:00 +18°C° 0 mm 3 m/S 718 mmHg 86%
21:00 +18°C° 0.2 mm 2 m/S 717 mmHg 89%
22:00 +17°C° 0.2 mm 2 m/S 717 mmHg 91%
23:00 +18°C° 0.2 mm 1 m/S 717 mmHg 93%

20 Juni, Sonntag

Zeit Temperatur Niederschläge Wind Luftdruck Luftfeuchtigkeit
00:00 +18°C° 0 mm 1 m/S 716 mmHg 93%
01:00 +17°C° 0 mm 2 m/S 716 mmHg 93%
02:00 +17°C° 0 mm 2 m/S 716 mmHg 93%
03:00 +17°C° 0.1 mm 2 m/S 715 mmHg 93%
04:00 +17°C° 0.1 mm 2 m/S 715 mmHg 94%
05:00 +17°C° 0.1 mm 3 m/S 715 mmHg 94%
06:00 +19°C° 0 mm 4 m/S 716 mmHg 83%
07:00 +22°C° 0 mm 6 m/S 716 mmHg 71%
08:00 +24°C° 0 mm 8 m/S 716 mmHg 59%
09:00 +26°C° 0 mm 8 m/S 717 mmHg 52%
10:00 +27°C° 0 mm 9 m/S 717 mmHg 45%
11:00 +28°C° 0 mm 9 m/S 718 mmHg 38%
12:00 +28°C° 0 mm 9 m/S 718 mmHg 38%
13:00 +27°C° 0 mm 9 m/S 719 mmHg 37%
14:00 +27°C° 0 mm 8 m/S 719 mmHg 37%
15:00 +26°C° 0 mm 8 m/S 720 mmHg 38%
16:00 +24°C° 0 mm 7 m/S 720 mmHg 39%
17:00 +23°C° 0 mm 7 m/S 721 mmHg 39%
18:00 +22°C° 0 mm 7 m/S 721 mmHg 46%
19:00 +20°C° 0 mm 6 m/S 721 mmHg 53%
20:00 +19°C° 0 mm 6 m/S 722 mmHg 59%
21:00 +16°C° 0 mm 6 m/S 722 mmHg 63%
22:00 +15°C° 0 mm 6 m/S 723 mmHg 68%
23:00 +14°C° 0 mm 6 m/S 724 mmHg 72%

21 Juni, Montag

Zeit Temperatur Niederschläge Wind Luftdruck Luftfeuchtigkeit
00:00 +13°C° 0 mm 5 m/S 725 mmHg 69%
01:00 +12°C° 0 mm 4 m/S 725 mmHg 66%
02:00 +11°C° 0 mm 4 m/S 726 mmHg 64%
03:00 +11°C° 0 mm 4 m/S 726 mmHg 62%
04:00 +11°C° 0 mm 4 m/S 727 mmHg 61%
05:00 +11°C° 0 mm 4 m/S 727 mmHg 59%
06:00 +12°C° 0 mm 4 m/S 727 mmHg 56%
07:00 +12°C° 0 mm 4 m/S 728 mmHg 52%
08:00 +13°C° 0 mm 5 m/S 728 mmHg 49%
09:00 +15°C° 0 mm 5 m/S 728 mmHg 42%
10:00 +17°C° 0 mm 5 m/S 728 mmHg 34%
11:00 +19°C° 0 mm 5 m/S 728 mmHg 27%
12:00 +20°C° 0 mm 6 m/S 727 mmHg 25%
13:00 +21°C° 0 mm 7 m/S 727 mmHg 24%
14:00 +22°C° 0 mm 8 m/S 727 mmHg 23%
15:00 +21°C° 0 mm 7 m/S 727 mmHg 23%
16:00 +21°C° 0 mm 6 m/S 727 mmHg 24%
17:00 +21°C° 0 mm 5 m/S 726 mmHg 25%
18:00 +18°C° 0 mm 4 m/S 726 mmHg 30%
19:00 +16°C° 0 mm 3 m/S 726 mmHg 35%
20:00 +13°C° 0 mm 2 m/S 726 mmHg 40%
21:00 +12°C° 0 mm 2 m/S 726 mmHg 44%
22:00 +10°C° 0 mm 2 m/S 727 mmHg 47%
23:00 +10°C° 0 mm 1 m/S 727 mmHg 51%

22 Juni, Dienstag

Zeit Temperatur Niederschläge Wind Luftdruck Luftfeuchtigkeit
00:00 +9°C° 0 mm 2 m/S 727 mmHg 53%
01:00 +8°C° 0 mm 2 m/S 726 mmHg 54%
02:00 +8°C° 0 mm 3 m/S 726 mmHg 56%
03:00 +8°C° 0 mm 3 m/S 726 mmHg 56%
04:00 +9°C° 0 mm 3 m/S 726 mmHg 56%
05:00 +9°C° 0 mm 3 m/S 726 mmHg 56%
06:00 +12°C° 0 mm 4 m/S 725 mmHg 48%
07:00 +17°C° 0 mm 4 m/S 725 mmHg 39%
08:00 +20°C° 0 mm 5 m/S 725 mmHg 31%
09:00 +23°C° 0 mm 5 m/S 724 mmHg 28%
10:00 +26°C° 0 mm 5 m/S 723 mmHg 24%
11:00 +28°C° 0 mm 5 m/S 722 mmHg 21%
12:00 +29°C° 0 mm 5 m/S 722 mmHg 21%
13:00 +30°C° 0 mm 6 m/S 721 mmHg 20%
14:00 +32°C° 0 mm 6 m/S 720 mmHg 19%
15:00 +33°C° 0 mm 6 m/S 720 mmHg 20%
16:00 +33°C° 0 mm 5 m/S 719 mmHg 20%
17:00 +33°C° 0 mm 5 m/S 718 mmHg 20%
18:00 +29°C° 0 mm 5 m/S 718 mmHg 26%
19:00 +26°C° 0 mm 4 m/S 717 mmHg 32%
20:00 +23°C° 0 mm 4 m/S 717 mmHg 38%
21:00 +22°C° 0 mm 5 m/S 717 mmHg 43%
22:00 +22°C° 0 mm 5 m/S 716 mmHg 48%
23:00 +21°C° 0 mm 6 m/S 716 mmHg 54%
Mehr zeigen

Wir brauchen deine Erlaubnis

Meteoprog und unser Service Anbieter werden persönliche Daten aufbewahren, so wie Cookies, Geräte Bezeichnung oder ähnliche Technologien von deinem Gerät und Prozess, so wie Persönliche Daten Inhalte und Werbungen, genauso wie social Media und den Verkehr zu analysieren.

  • Aufbewahrung und/oder Zugang zu deiner Geräte Informationen.

    Cookies, Geräte Bezeichnung oder andere Informationen, können aufbewahrt oder Zugang zu deinem Gerät erhalten, für den Grund, der oben angegeben wird.

  • Personalisierte Werbung und Inhalte, Messungen, Einblick in das Publikum und Produkt Entwicklung.

    Werbungen und Inhalte können personalisiert werden, basierend auf ein Profil. Mehr Daten können besser personalisierte Werbungen und Inhalte hinzufügen. Werbung und Inhalte können gezeigt und gemessen werden. Einblicke über das Publikum, welche die Werbung gesehen haben und den Inhalt, können abgeleitet werden. So wie Daten können genutzt werden, um es zu verbessern oder die Benutzer Erfahrung zu verbessern das System und die Software.

Wenn du “Ich stimme zu” klickst, erlaubst du uns, die Cookies zu benutzen die Geräte Bezeichnung, den Web oder ähnliche Technologien zu benutzen. Deine Settings, können in deinem Gerät bei deinem Browser geändert werden.

Für den bestimmten Zweck, berechtigten Interessen beruhen darauf, mehr als auf den Inhalt. Du kannst mehr darüber in unseren Privaten und Cookie Politik lesen.